Location: Newark
(49.8348°N, 24.0280°E)
Time: 20:56:19
(UTC+00:00)

Explorer 7 - Pass Details

Date: 18 January 2020
Orbit: 485 x 679 km, 50.3° (Epoch: 26 February)

Event Time Altitude Azimuth Distance (km) Brightness Sun altitude
Rises 01:19:56 0° 250° (WSW) 2,551 - -46.2°
Reaches altitude 10° 01:22:04 10° 249° (WSW) 1,683 - -45.9°
Maximum altitude 01:25:51 75° 165° (SSE) 525 - -45.4°
Drops below altitude 10° 01:29:49 10° 79° (E) 1,758 - -44.8°
Exits shadow 01:31:57 - 78° (ENE) 2,624 11.0 -44.5°
Sets 01:32:05 0° 78° (ENE) 2,679 11.1 -44.4°
